Columbia County, Pennsylvania, United States
Lat: 41.04N, Lon: 76.43W
Wx Zone: PAZ053
Local Info
Past Weather Observations for Monday, November 17, 2014

NOTE: This archive is for the closest National Weather Service station to Columbia County. Information may differ from the station used for current weather conditions.

Click here for Long-term Archive

Time Weather Temperature Dewpoint Humidity Pressure Winds Precip Visibility
23:53
Mostly Cloudy
32°F / 0°C 16°F / -9°C 51% 29.74 in
(1007 mb)
Variable 4.6 mph
(Variable 7 kph)
- 10SM
22:53
Overcast
36°F / 2°C 19°F / -7°C 52% 29.71 in
(1006 mb)
SW 9.2 mph
(SW 15 kph)
- 10SM
21:53
Overcast
37°F / 3°C 27°F / -3°C 65% 29.71 in
(1006 mb)
W 11.5 mph
(W 19 kph)
- 10SM
20:53
Overcast
39°F / 4°C 30°F / -1°C 70% 29.65 in
(1004 mb)
SSW 9.2 mph
(SSW 15 kph)
- 10SM
20:06
Overcast
39°F / 4°C 30°F / -1°C 70% 29.65 in
(1004 mb)
Variable 5.8 mph
(Variable 9 kph)
- 10SM
19:53
Overcast
39°F / 4°C 30°F / -1°C 70% 29.65 in
(1004 mb)
W 8.1 mph
(W 13 kph)
- 10SM
19:34
Overcast
41°F / 5°C 32°F / 0°C 70% 29.65 in
(1004 mb)
W 5.8 mph
(W 9 kph)
- 10SM
18:53
Overcast
41°F / 5°C 34°F / 1°C 76% 29.62 in
(1003 mb)
W 9.2 mph
(W 15 kph)
- 10SM
17:53
Overcast
41°F / 5°C 37°F / 3°C 87% 29.62 in
(1003 mb)
SSW 4.6 mph
(SSW 7 kph)
- 10SM
17:21
Overcast
41°F / 5°C 37°F / 3°C 87% 29.59 in
(1002 mb)
SW 4.6 mph
(SW 7 kph)
- 10SM
16:53
Overcast
41°F / 5°C 37°F / 3°C 87% 29.59 in
(1002 mb)
SSE 4.6 mph
(SSE 7 kph)
- 10SM
16:05
Overcast
41°F / 5°C 37°F / 3°C 87% 29.59 in
(1002 mb)
SW 5.8 mph
(SW 9 kph)
- 8SM
15:53
Overcast
Fog And Mist
41°F / 5°C 39°F / 4°C 93% 29.56 in
(1001 mb)
Variable 3.5 mph
(Variable 6 kph)
0.01 in
(0.25 mm)
5SM
15:39
Overcast
Fog And Mist
41°F / 5°C 39°F / 4°C 93% 29.56 in
(1001 mb)
W 4.6 mph
(W 7 kph)
0.01 in
(0.25 mm)
5SM
15:22
Overcast
Light Rain
41°F / 5°C 39°F / 4°C 93% 29.53 in
(1000 mb)
S 3.5 mph
(S 6 kph)
0.01 in
(0.25 mm)
7SM
15:00
Overcast
Light Rain
41°F / 5°C 39°F / 4°C 93% 29.56 in
(1001 mb)
SSW 3.5 mph
(SSW 6 kph)
0.00 in
(0.00 mm)
5SM
14:53
Overcast
Light Rain
41°F / 5°C 39°F / 4°C 93% 29.56 in
(1001 mb)
W 3.5 mph
(W 6 kph)
0.07 in
(1.78 mm)
3SM
14:51
Overcast
Light Rain
41°F / 5°C 39°F / 4°C 93% 29.56 in
(1001 mb)
W 3.5 mph
(W 6 kph)
0.07 in
(1.78 mm)
3SM
14:25
Overcast
Light Rain
41°F / 5°C 37°F / 3°C 87% 29.53 in
(1000 mb)
SSW 3.5 mph
(SSW 6 kph)
0.04 in
(1.02 mm)
2 1/2SM
14:12
Overcast
Light Rain
41°F / 5°C 39°F / 4°C 93% 29.53 in
(1000 mb)
SSW 3.5 mph
(SSW 6 kph)
0.03 in
(0.76 mm)
3SM
13:55
Overcast
Light Rain
41°F / 5°C 39°F / 4°C 93% 29.53 in
(1000 mb)
Calm 0.01 in
(0.25 mm)
2 1/2SM
13:53
Overcast
Light Rain
41°F / 5°C 39°F / 4°C 93% 29.53 in
(1000 mb)
Calm 0.04 in
(1.02 mm)
3SM
13:40
Overcast
Light Rain
41°F / 5°C 39°F / 4°C 93% 29.56 in
(1001 mb)
Variable 3.5 mph
(Variable 6 kph)
0.03 in
(0.76 mm)
3SM
13:16
Overcast
Light Rain
39°F / 4°C 37°F / 3°C 93% 29.56 in
(1001 mb)
Calm 0.02 in
(0.51 mm)
2SM
13:00
Overcast
Light Rain
39°F / 4°C 37°F / 3°C 93% 29.56 in
(1001 mb)
SW 3.5 mph
(SW 6 kph)
0.01 in
(0.25 mm)
1 3/4SM
12:53
Overcast
Light Rain
39°F / 4°C 37°F / 3°C 93% 29.56 in
(1001 mb)
SW 3.5 mph
(SW 6 kph)
0.03 in
(0.76 mm)
4SM
12:11
Overcast
Light Rain
39°F / 4°C 37°F / 3°C 93% 29.59 in
(1002 mb)
Calm 0.01 in
(0.25 mm)
4SM
11:53
Overcast
Light Rain
39°F / 4°C 37°F / 3°C 93% 29.62 in
(1003 mb)
S 3.5 mph
(S 6 kph)
0.06 in
(1.52 mm)
3SM
11:51
Overcast
Light Rain
39°F / 4°C 37°F / 3°C 93% 29.62 in
(1003 mb)
SSE 3.5 mph
(SSE 6 kph)
0.06 in
(1.52 mm)
2 1/2SM
11:40
Overcast
Light Rain
39°F / 4°C 37°F / 3°C 93% 29.62 in
(1003 mb)
SW 3.5 mph
(SW 6 kph)
0.05 in
(1.27 mm)
3SM
11:32
Overcast
Rain
39°F / 4°C 37°F / 3°C 93% 29.65 in
(1004 mb)
SW 3.5 mph
(SW 6 kph)
0.04 in
(1.02 mm)
2 1/2SM
10:53
Overcast
Light Rain
39°F / 4°C 37°F / 3°C 93% 29.68 in
(1005 mb)
S 4.6 mph
(S 7 kph)
0.02 in
(0.51 mm)
5SM
10:30
Overcast
Light Rain
39°F / 4°C 37°F / 3°C 93% 29.68 in
(1005 mb)
SSE 5.8 mph
(SSE 9 kph)
0.02 in
(0.51 mm)
4SM
09:53
Overcast
Light Rain
39°F / 4°C 37°F / 3°C 93% 29.71 in
(1006 mb)
S 5.8 mph
(S 9 kph)
0.04 in
(1.02 mm)
3SM
09:43
Overcast
Light Rain
39°F / 4°C 37°F / 3°C 93% 29.71 in
(1006 mb)
S 4.6 mph
(S 7 kph)
0.03 in
(0.76 mm)
3SM
09:32
Overcast
Light Rain
39°F / 4°C 36°F / 2°C 87% 29.74 in
(1007 mb)
S 3.5 mph
(S 6 kph)
0.02 in
(0.51 mm)
3SM
09:17
Overcast
Light Rain
39°F / 4°C 36°F / 2°C 87% 29.74 in
(1007 mb)
SSE 3.5 mph
(SSE 6 kph)
0.02 in
(0.51 mm)
3SM
09:08
Overcast
Light Rain
37°F / 3°C 36°F / 2°C 93% 29.74 in
(1007 mb)
S 3.5 mph
(S 6 kph)
0.01 in
(0.25 mm)
3SM
08:53
Overcast
Light Rain
37°F / 3°C 36°F / 2°C 93% 29.77 in
(1008 mb)
S 3.5 mph
(S 6 kph)
0.05 in
(1.27 mm)
2SM
08:20
Overcast
Light Rain
37°F / 3°C 36°F / 2°C 93% 29.8 in
(1009 mb)
S 3.5 mph
(S 6 kph)
0.02 in
(0.51 mm)
2 1/2SM
08:03
Overcast
Light Rain
37°F / 3°C 36°F / 2°C 93% 29.8 in
(1009 mb)
Calm 0.01 in
(0.25 mm)
2 1/2SM
07:53
Overcast
Light Rain
37°F / 3°C 36°F / 2°C 93% 29.8 in
(1009 mb)
Calm 0.00 in
(0.00 mm)
3SM
06:53
Overcast
Fog And Mist
37°F / 3°C 34°F / 1°C 87% 29.83 in
(1010 mb)
Calm - 6SM
05:53
Overcast
37°F / 3°C 36°F / 2°C 93% 29.83 in
(1010 mb)
S 4.6 mph
(S 7 kph)
- 7SM
05:38
Overcast
37°F / 3°C 36°F / 2°C 93% 29.86 in
(1011 mb)
S 4.6 mph
(S 7 kph)
- 7SM
04:53
Overcast
Fog And Mist
37°F / 3°C 34°F / 1°C 87% 29.89 in
(1012 mb)
S 4.6 mph
(S 7 kph)
0.01 in
(0.25 mm)
5SM
04:38
Overcast
Unknown Precip
37°F / 3°C 36°F / 2°C 93% 29.89 in
(1012 mb)
S 4.6 mph
(S 7 kph)
0.01 in
(0.25 mm)
3SM
04:23
Overcast
Light Rain
36°F / 2°C 34°F / 1°C 93% 29.89 in
(1012 mb)
SSE 6.9 mph
(SSE 11 kph)
0.01 in
(0.25 mm)
2SM
04:14
Overcast
Light Rain
36°F / 2°C 36°F / 2°C 100% 29.92 in
(1013 mb)
SSE 5.8 mph
(SSE 9 kph)
0.00 in
(0.00 mm)
2 1/2SM
04:01
Overcast
Light Rain
37°F / 3°C 34°F / 1°C 87% 29.92 in
(1013 mb)
S 4.6 mph
(S 7 kph)
0.00 in
(0.00 mm)
3SM
03:53
Overcast
Light Rain
37°F / 3°C 34°F / 1°C 87% 29.92 in
(1013 mb)
S 3.5 mph
(S 6 kph)
0.01 in
(0.25 mm)
3SM
03:35
Overcast
Light Rain
37°F / 3°C 34°F / 1°C 87% 29.95 in
(1014 mb)
S 4.6 mph
(S 7 kph)
0.01 in
(0.25 mm)
3SM
03:19
Overcast
Light Rain
37°F / 3°C 34°F / 1°C 87% 29.95 in
(1014 mb)
S 5.8 mph
(S 9 kph)
0.01 in
(0.25 mm)
3SM
02:53
Overcast
Light Rain
37°F / 3°C 36°F / 2°C 93% 29.95 in
(1014 mb)
Calm 0.02 in
(0.51 mm)
4SM
02:06
Overcast
Light Rain
36°F / 2°C 34°F / 1°C 93% 29.98 in
(1015 mb)
SSE 5.8 mph
(SSE 9 kph)
0.01 in
(0.25 mm)
4SM
01:53
Overcast
Light Rain
36°F / 2°C 34°F / 1°C 93% 30.01 in
(1016 mb)
S 4.6 mph
(S 7 kph)
0.03 in
(0.76 mm)
4SM
01:48
Overcast
Light Rain
36°F / 2°C 34°F / 1°C 93% 30.01 in
(1016 mb)
SSE 3.5 mph
(SSE 6 kph)
0.03 in
(0.76 mm)
4SM
01:38
Overcast
Light Rain
36°F / 2°C 34°F / 1°C 93% 30.01 in
(1016 mb)
S 5.8 mph
(S 9 kph)
0.03 in
(0.76 mm)
3SM
01:28
Overcast
Light Rain
36°F / 2°C 34°F / 1°C 93% 30.01 in
(1016 mb)
S 5.8 mph
(S 9 kph)
0.02 in
(0.51 mm)
2 1/2SM
00:53
Overcast
Light Rain
36°F / 2°C 34°F / 1°C 93% 29.98 in
(1015 mb)
S 4.6 mph
(S 7 kph)
0.01 in
(0.25 mm)
3SM
00:29
Overcast
Light Rain
36°F / 2°C 34°F / 1°C 93% 30.01 in
(1016 mb)
SSE 3.5 mph
(SSE 6 kph)
0.01 in
(0.25 mm)
5SM
00:16
Overcast
Light Rain
37°F / 3°C 34°F / 1°C 87% 30.01 in
(1016 mb)
SSE 3.5 mph
(SSE 6 kph)
0.01 in
(0.25 mm)
6SM
00:04
Overcast
Light Rain
37°F / 3°C 34°F / 1°C 87% 30.01 in
(1016 mb)
S 5.8 mph
(S 9 kph)
0.00 in
(0.00 mm)
6SM
Time Weather Temperature Dewpoint Humidity Pressure Winds Precip Visibility


Weather for websites

WeatherForYou.com, LLC is not responsible for any damages or problems caused by this service. Current weather conditions are obtained from the closest station including government and personal stations which may have varying degrees of accuracy. Weather forecasts are derived from the NOAA NDFD. Like all things, this site belongs to Jesus Christ... He just trusts me to maintain it. If you have any questions or comments email webmaster@weatherforyou.com

Copyright © 2014, WeatherForYou.com LLC. All rights reserved.